DW2802 Ogijares ES current weather conditions

sailwx.info

Wind from 250 at 3 knots gusting 10

Air temperature 22.8° C
Dewpoint 5.7° C

Last reported at 2016-May-30 13:52 UTC.
Time now 2016-May-30 14:32 UTC

Location: N 37°07' W 003°36'.
View on Google Maps.

See reports from other nearby stations

  
Tides and Currents Weather Stations Pressure Air Temp Water Temp Dewpoint Dewpoint Depression Visibility Wind Speed Wind Dir Waves Ship Positions
date/time (UTC)wind fromknots sea level pressurealtimeterstation pressurevisibilityair tempwater tempwave heightnotes
2016-May-30 13:52 250 3 gusting 10 22.8
2016-May-30 13:37 311 2 gusting 6 22.2
2016-May-30 13:22 298 3 gusting 10 22.2
2016-May-30 13:07 323 21.7
2016-May-30 12:52 134 21.1
2016-May-30 12:37 237 3 gusting 6 21.7
2016-May-30 12:22 048 5 gusting 10 22.2
2016-May-30 12:07 311 0 gusting 5 20.6
2016-May-30 11:51 236 0 gusting 9 20.0
2016-May-30 11:36 326 20.0
2016-May-30 11:21 335 3 gusting 7 20.0
2016-May-30 11:06 309 3 gusting 9 19.4
2016-May-30 10:51 263 0 gusting 8 18.9
2016-May-30 10:36 028 4 gusting 9 18.3
2016-May-30 10:21 005 1 gusting 7 18.3
2016-May-30 10:06 030 0 gusting 4 17.2
2016-May-30 09:51 276 0 gusting 6 16.7
2016-May-30 09:36 322 0 gusting 4 16.7
2016-May-30 09:21 348 0 gusting 3 16.1
2016-May-30 09:06 324 0 gusting 4 15.6
2016-May-30 08:51 331 2 gusting 5 15.0
2016-May-30 08:36 330 3 gusting 5 15.0
2016-May-30 08:21 360 2 gusting 5 14.4
2016-May-30 08:05 286 13.9
2016-May-30 07:50 297 13.9
2016-May-30 07:35 296 13.3
2016-May-30 07:20 296 12.8
2016-May-30 07:05 296 12.2
2016-May-30 06:50 296 12.2
2016-May-30 06:35 296 11.7
2016-May-30 06:20 296 11.7
2016-May-30 06:05 296 11.1
2016-May-30 05:50 296 10.0
2016-May-30 05:35 296 9.4
2016-May-30 05:20 296 9.4
2016-May-30 05:05 296 9.4
2016-May-30 04:50 301 9.4
2016-May-30 04:35 301 9.4
2016-May-30 04:20 301 10.0
2016-May-30 04:05 301 10.0
2016-May-30 03:50 301 10.0
2016-May-30 03:35 301 10.0
2016-May-30 03:20 301 10.0
2016-May-30 03:05 301 10.6
2016-May-30 02:50 301 10.6
2016-May-30 02:35 301 11.1
2016-May-30 02:20 301 10.6
2016-May-30 02:05 301 11.1
2016-May-30 01:50 301 11.1
2016-May-30 01:35 301 11.1
2016-May-30 01:20 301 11.7
2016-May-30 01:05 301 11.7
2016-May-30 00:49 301 12.2
2016-May-30 00:34 301 12.8
2016-May-30 00:19 301 12.8
2016-May-30 00:04 301 13.3
2016-May-29 23:49 301 13.3
2016-May-29 23:34 301 13.9
2016-May-29 23:19 301 14.4
2016-May-29 23:04 300 2 gusting 6 13.9
2016-May-29 22:49 033 14.4
2016-May-29 22:34 033 14.4
2016-May-29 22:19 033 15.0
2016-May-29 22:04 033 15.6
2016-May-29 21:49 033 15.6
2016-May-29 21:34 033 15.6
2016-May-29 21:19 023 2 gusting 4 16.1
2016-May-29 21:04 013 0 gusting 6 16.7
2016-May-29 20:49 017 0 gusting 7 16.7
2016-May-29 20:34 009 2 gusting 7 16.7
2016-May-29 20:19 350 3 gusting 8 16.7
2016-May-29 20:04 005 4 gusting 7 17.2
2016-May-29 19:49 351 1 gusting 9 17.2
2016-May-29 19:34 005 3 gusting 8 17.8
2016-May-29 19:19 340 3 gusting 10 17.8
2016-May-29 19:04 333 4 gusting 9 18.3
2016-May-29 18:49 328 5 gusting 11 18.3
2016-May-29 18:34 312 7 gusting 13 18.9
2016-May-29 18:19 340 6 gusting 11 18.9
2016-May-29 18:04 338 4 gusting 13 18.9
2016-May-29 17:49 021 3 gusting 13 18.9
2016-May-29 17:34 303 6 gusting 13 19.4
2016-May-29 17:19 309 6 gusting 13 19.4
2016-May-29 17:04 329 7 gusting 13 19.4
2016-May-29 16:49 294 7 gusting 17 19.4
2016-May-29 16:34 306 6 gusting 13 19.4
2016-May-29 16:19 308 7 gusting 13 19.4
2016-May-29 16:04 256 5 gusting 13 19.4
2016-May-29 15:49 275 8 gusting 15 19.4
2016-May-29 15:34 344 8 gusting 14 19.4
2016-May-29 15:19 281 8 gusting 15 19.4
2016-May-29 15:04 266 7 gusting 13 19.4
2016-May-29 14:34 338 6 gusting 13 19.4
2016-May-29 14:19 327 2 gusting 14 19.4
2016-May-29 14:04 283 6 gusting 14 19.4
2016-May-29 13:49 251 8 gusting 17 19.4
2016-May-29 13:34 256 3 gusting 13 19.4
2016-May-29 13:04 276 6 gusting 12 18.9
2016-May-29 12:49 232 4 gusting 11 18.9
2016-May-29 12:34 264 4 gusting 9 18.3
2016-May-29 12:19 317 6 gusting 13 18.3
2016-May-29 12:04 019 2 gusting 9 18.3
2016-May-29 11:48 355 4 gusting 10 18.3
2016-May-29 11:33 319 6 gusting 11 17.8
2016-May-29 11:18 267 17.2
2016-May-29 11:03 057 17.8
2016-May-29 10:48 022 1 gusting 8 16.7
2016-May-29 10:37 308 2 gusting 7 16.7
2016-May-29 08:40 15.0
2016-May-29 08:04 331 1 gusting 4 13.9
2016-May-29 07:48 322 13.3
2016-May-29 07:33 028 0 gusting 3 14.4
2016-May-29 07:18 052 2 gusting 4 14.4
2016-May-29 07:03 015 2 gusting 6 13.9
2016-May-29 06:48 293 13.9
2016-May-29 06:33 236 13.3
2016-May-29 06:18 236 12.8
2016-May-29 06:03 234 12.2
2016-May-29 05:48 234 11.1
2016-May-29 05:33 234 11.1
2016-May-29 05:18 236 11.1
2016-May-29 05:03 246 11.7
2016-May-29 04:48 267 12.2
2016-May-29 04:33 267 12.2
2016-May-29 04:18 267 12.2
2016-May-29 04:03 267 12.2
2016-May-29 03:48 267 12.2
2016-May-29 03:33 267 12.2
2016-May-29 03:18 267 12.2
2016-May-29 03:03 267 12.2
2016-May-29 02:48 267 1 gusting 5 12.2
2016-May-29 02:33 266 12.8
2016-May-29 02:18 265 12.8
2016-May-29 02:02 265 12.8
2016-May-29 01:47 272 1 gusting 6 12.8
2016-May-29 01:32 274 3 gusting 5 12.8
2016-May-29 01:17 274 12.8
2016-May-29 01:02 274 12.8
2016-May-29 00:47 227 12.8
2016-May-29 00:32 344 0 gusting 4 13.3
2016-May-29 00:17 344 2 gusting 5 13.3
2016-May-29 00:02 337 1 gusting 4 13.3
2016-May-28 23:47 281 13.3
2016-May-28 23:32 273 3 gusting 13 13.9
2016-May-28 23:17 320 1 gusting 4 13.9
2016-May-28 23:02 313 1 gusting 7 13.9
2016-May-28 22:47 340 2 gusting 6 14.4
2016-May-28 22:32 360 1 gusting 5 14.4
2016-May-28 22:17 270 0 gusting 5 14.4
2016-May-28 22:02 267 1 gusting 6 14.4
2016-May-28 21:47 284 14.4
2016-May-28 21:32 284 14.4
2016-May-28 21:17 282 15.0
2016-May-28 21:02 281 15.0
2016-May-28 20:47 288 2 gusting 7 15.0
2016-May-28 20:32 230 1 gusting 6 15.6
2016-May-28 20:17 073 15.6
2016-May-28 20:02 077 4 gusting 7 15.6
2016-May-28 19:47 273 15.6
2016-May-28 19:32 273 15.6
2016-May-28 19:17 227 15.6
2016-May-28 19:02 044 16.1
2016-May-28 18:47 028 16.1
2016-May-28 18:32 110 16.1
2016-May-28 18:17 294 15.6
2016-May-28 18:02 339 15.0
2016-May-28 17:47 310 2 gusting 6 14.4
2016-May-28 17:32 059 14.4
2016-May-28 17:17 017 14.4
2016-May-28 17:02 016 3 gusting 6 13.9
2016-May-28 16:47 306 13.9
2016-May-28 16:32 306 7 gusting 13 14.4
2016-May-28 16:17 277 10 gusting 19 15.0
2016-May-28 16:02 290 6 gusting 11 15.0
2016-May-28 15:47 275 6 gusting 15 15.0
2016-May-28 15:31 297 10 gusting 18 15.0
2016-May-28 15:16 251 8 gusting 19 15.6
2016-May-28 15:01 304 10 gusting 22 15.6
2016-May-28 14:46 300 16 gusting 28 16.7
2016-May-28 14:31 306 16 gusting 26 18.9
2016-May-28 14:16 289 9 gusting 15 20.6
2016-May-28 14:01 270 8 gusting 19 21.1